Time,TemperatureF,DewpointF,PressureIn,WindDirection,WindDirectionDegrees,WindSpeedMPH,WindSpeedGustMPH,Humidity,HourlyPrecipIn,Conditions,Clouds,dailyrainin,SoftwareType,DateUTC
2013-04-21 00:00:00,44.6,24.5,30.30,North,1,5.0,5.0,45,0.00,,,0.00,Wunderground v.1.15,2013-04-21 04:00:00,
2013-04-21 00:05:00,44.5,24.5,30.30,NNE,24,5.0,5.0,45,0.00,,,0.00,Wunderground v.1.15,2013-04-21 04:05:00,
2013-04-21 00:10:00,44.1,23.6,30.31,NE,49,5.0,5.0,44,0.00,,,0.00,Wunderground v.1.15,2013-04-21 04:10:00,
2013-04-21 00:15:00,43.8,23.3,30.32,NNW,338,5.0,7.0,44,0.00,,,0.00,Wunderground v.1.15,2013-04-21 04:15:00,
2013-04-21 00:20:00,43.5,23.0,30.32,SSW,209,5.0,5.0,44,0.00,,,0.00,Wunderground v.1.15,2013-04-21 04:20:00,
2013-04-21 00:30:00,43.1,23.2,30.32,NW,320,5.0,5.0,45,0.00,,,0.00,Wunderground v.1.15,2013-04-21 04:30:00,
2013-04-21 00:35:00,42.9,23.0,30.32,ENE,62,5.0,5.0,45,0.00,,,0.00,Wunderground v.1.15,2013-04-21 04:35:00,
2013-04-21 00:40:00,42.8,22.9,30.32,NW,309,5.0,5.0,45,0.00,,,0.00,Wunderground v.1.15,2013-04-21 04:40:00,
2013-04-21 00:50:00,42.6,23.2,30.32,NNE,21,4.0,6.0,46,0.00,,,0.00,Wunderground v.1.15,2013-04-21 04:50:00,
2013-04-21 01:00:00,42.2,22.4,30.33,NNE,21,4.0,8.0,45,0.00,,,0.00,Wunderground v.1.15,2013-04-21 05:00:00,
2013-04-21 01:10:00,41.7,21.4,30.33,NNW,338,3.0,3.0,44,0.00,,,0.00,Wunderground v.1.15,2013-04-21 05:10:00,
2013-04-21 01:20:00,41.6,19.6,30.34,NNE,28,5.0,5.0,41,0.00,,,0.00,Wunderground v.1.15,2013-04-21 05:20:00,
2013-04-21 01:30:00,41.0,19.1,30.34,North,356,5.0,5.0,41,0.00,,,0.00,Wunderground v.1.15,2013-04-21 05:30:00,
2013-04-21 01:40:00,40.9,19.0,30.35,NNW,346,4.0,4.0,41,0.00,,,0.00,Wunderground v.1.15,2013-04-21 05:40:00,
2013-04-21 01:50:00,40.9,19.5,30.35,NNE,24,4.0,4.0,42,0.00,,,0.00,Wunderground v.1.15,2013-04-21 05:50:00,
2013-04-21 02:00:00,40.8,19.5,30.35,WNW,302,5.0,5.0,42,0.00,,,0.00,Wunderground v.1.15,2013-04-21 06:00:00,
2013-04-21 02:10:00,40.5,19.2,30.36,North,356,4.0,4.0,42,0.00,,,0.00,Wunderground v.1.15,2013-04-21 06:10:00,
2013-04-21 02:20:00,40.2,19.5,30.36,WNW,294,3.0,3.0,43,0.00,,,0.00,Wunderground v.1.15,2013-04-21 06:20:00,
2013-04-21 02:30:00,40.0,19.8,30.37,North,1,3.0,3.0,44,0.00,,,0.00,Wunderground v.1.15,2013-04-21 06:30:00,
2013-04-21 02:40:00,40.0,20.9,30.37,North,1,3.0,3.0,46,0.00,,,0.00,Wunderground v.1.15,2013-04-21 06:40:00,
2013-04-21 02:50:00,39.8,20.2,30.37,North,9,3.0,3.0,45,0.00,,,0.00,Wunderground v.1.15,2013-04-21 06:50:00,
2013-04-21 03:00:00,39.9,20.3,30.37,NE,47,3.0,3.0,45,0.00,,,0.00,Wunderground v.1.15,2013-04-21 07:00:00,
2013-04-21 03:10:00,39.4,20.3,30.38,North,1,3.0,5.0,46,0.00,,,0.00,Wunderground v.1.15,2013-04-21 07:10:00,
2013-04-21 03:20:00,39.2,20.1,30.38,North,351,3.0,3.0,46,0.00,,,0.00,Wunderground v.1.15,2013-04-21 07:20:00,
2013-04-21 03:30:00,39.0,19.9,30.38,North,6,2.0,3.0,46,0.00,,,0.00,Wunderground v.1.15,2013-04-21 07:30:00,
2013-04-21 03:40:00,39.1,20.0,30.38,NNE,20,3.0,3.0,46,0.00,,,0.00,Wunderground v.1.15,2013-04-21 07:40:00,
2013-04-21 03:50:00,38.7,19.7,30.39,North,5,3.0,5.0,46,0.00,,,0.00,Wunderground v.1.15,2013-04-21 07:50:00,
2013-04-21 04:00:00,38.7,20.7,30.39,NE,45,3.0,9.0,48,0.00,,,-99.99,WeatherLink 6.0.2,2013-04-21 08:00:00,
2013-04-21 04:10:00,38.4,21.4,30.39,WNW,282,4.0,5.0,50,0.00,,,0.00,Wunderground v.1.15,2013-04-21 08:10:00,
2013-04-21 04:20:00,38.2,21.2,30.40,ENE,73,3.0,3.0,50,0.00,,,0.00,Wunderground v.1.15,2013-04-21 08:20:00,
2013-04-21 04:30:00,38.2,21.2,30.40,NE,36,3.0,4.0,50,0.00,,,0.00,Wunderground v.1.15,2013-04-21 08:30:00,
2013-04-21 04:40:00,37.9,21.4,30.40,ENE,63,5.0,7.0,51,0.00,,,0.00,Wunderground v.1.15,2013-04-21 08:40:00,
2013-04-21 04:50:00,37.9,21.4,30.41,NNE,28,3.0,4.0,51,0.00,,,0.00,Wunderground v.1.15,2013-04-21 08:50:00,
2013-04-21 05:00:00,37.6,21.5,30.41,ENE,76,3.0,3.0,52,0.00,,,0.00,Wunderground v.1.15,2013-04-21 09:00:00,
2013-04-21 05:10:00,37.4,21.4,30.42,NNE,22,3.0,5.0,52,0.00,,,0.00,Wunderground v.1.15,2013-04-21 09:10:00,
2013-04-21 05:20:00,37.3,21.3,30.43,North,10,2.0,3.0,52,0.00,,,0.00,Wunderground v.1.15,2013-04-21 09:20:00,
2013-04-21 05:30:00,37.2,21.6,30.43,NNE,16,2.0,2.0,53,0.00,,,0.00,Wunderground v.1.15,2013-04-21 09:30:00,
2013-04-21 05:40:00,37.1,21.5,30.44,NE,36,1.0,1.0,53,0.00,,,0.00,Wunderground v.1.15,2013-04-21 09:40:00,
2013-04-21 05:50:00,37.0,21.4,30.44,ENE,63,3.0,3.0,53,0.00,,,0.00,Wunderground v.1.15,2013-04-21 09:50:00,
2013-04-21 06:00:00,36.8,22.1,30.45,NE,36,2.0,2.0,55,0.00,,,0.00,Wunderground v.1.15,2013-04-21 10:00:00,
2013-04-21 06:10:00,36.6,21.9,30.45,NNE,33,1.0,2.0,55,0.00,,,0.00,Wunderground v.1.15,2013-04-21 10:10:00,
2013-04-21 06:20:00,36.3,22.1,30.46,NNE,26,1.0,1.0,56,0.00,,,0.00,Wunderground v.1.15,2013-04-21 10:20:00,
2013-04-21 06:30:00,36.2,22.4,30.47,NNE,17,0.0,0.0,57,0.00,,,0.00,Wunderground v.1.15,2013-04-21 10:30:00,
2013-04-21 06:40:00,36.1,22.7,30.48,NNE,17,0.0,0.0,58,0.00,,,0.00,Wunderground v.1.15,2013-04-21 10:40:00,
2013-04-21 06:50:00,36.5,22.7,30.48,NNE,21,2.0,4.0,57,0.00,,,0.00,Wunderground v.1.15,2013-04-21 10:50:00,
2013-04-21 07:00:00,37.0,22.7,30.49,NNE,32,3.0,3.0,56,0.00,,,0.00,Wunderground v.1.15,2013-04-21 11:00:00,
2013-04-21 07:10:00,37.4,23.1,30.50,NE,48,2.0,2.0,56,0.00,,,0.00,Wunderground v.1.15,2013-04-21 11:10:00,
2013-04-21 07:20:00,37.8,22.6,30.50,NE,35,3.0,3.0,54,0.00,,,0.00,Wunderground v.1.15,2013-04-21 11:20:00,
2013-04-21 07:30:00,37.7,23.0,30.51,NNE,22,3.0,4.0,55,0.00,,,0.00,Wunderground v.1.15,2013-04-21 11:30:00,
2013-04-21 07:40:00,38.4,23.2,30.51,North,11,3.0,3.0,54,0.00,,,0.00,Wunderground v.1.15,2013-04-21 11:40:00,
2013-04-21 07:50:00,38.8,23.1,30.52,NE,38,3.0,4.0,53,0.00,,,0.00,Wunderground v.1.15,2013-04-21 11:50:00,
2013-04-21 08:00:00,38.8,22.7,30.52,WNW,282,6.0,6.0,52,0.00,,,0.00,Wunderground v.1.15,2013-04-21 12:00:00,
2013-04-21 08:10:00,39.2,22.6,30.53,NNE,23,5.0,5.0,51,0.00,,,0.00,Wunderground v.1.15,2013-04-21 12:10:00,
2013-04-21 08:20:00,39.3,23.1,30.53,NE,42,5.0,11.0,52,0.00,,,0.00,Wunderground v.1.15,2013-04-21 12:20:00,
2013-04-21 08:30:00,39.2,23.0,30.53,North,5,8.0,8.0,52,0.00,,,0.00,Wunderground v.1.15,2013-04-21 12:30:00,
2013-04-21 08:40:00,39.7,23.0,30.53,NNE,21,5.0,11.0,51,0.00,,,0.00,Wunderground v.1.15,2013-04-21 12:40:00,
2013-04-21 08:50:00,39.8,23.1,30.54,NNE,18,8.0,8.0,51,0.00,,,0.00,Wunderground v.1.15,2013-04-21 12:50:00,
2013-04-21 09:00:00,39.9,22.7,30.54,ENE,64,7.0,7.0,50,0.00,,,0.00,Wunderground v.1.15,2013-04-21 13:00:00,
2013-04-21 09:10:00,40.5,22.8,30.54,WSW,248,5.0,5.0,49,0.00,,,0.00,Wunderground v.1.15,2013-04-21 13:10:00,
2013-04-21 09:20:00,41.1,23.4,30.54,NNW,332,4.0,4.0,49,0.00,,,0.00,Wunderground v.1.15,2013-04-21 13:20:00,
2013-04-21 09:30:00,41.1,22.9,30.55,North,5,6.0,6.0,48,0.00,,,0.00,Wunderground v.1.15,2013-04-21 13:30:00,
2013-04-21 09:40:00,40.9,21.7,30.55,North,356,7.0,7.0,46,0.00,,,0.00,Wunderground v.1.15,2013-04-21 13:40:00,
2013-04-21 09:50:00,42.0,22.7,30.55,North,9,5.0,11.0,46,0.00,,,0.00,Wunderground v.1.15,2013-04-21 13:50:00,
2013-04-21 10:00:00,41.8,22.0,30.56,NNE,32,6.0,9.0,45,0.00,,,0.00,Wunderground v.1.15,2013-04-21 14:00:00,
2013-04-21 10:10:00,42.2,21.8,30.57,WNW,288,7.0,7.0,44,0.00,,,0.00,Wunderground v.1.15,2013-04-21 14:10:00,
2013-04-21 10:20:00,42.2,21.8,30.57,NW,321,6.0,6.0,44,0.00,,,0.00,Wunderground v.1.15,2013-04-21 14:20:00,
2013-04-21 10:30:00,43.3,22.8,30.57,NNE,22,6.0,13.0,44,0.00,,,-99.99,WeatherLink 6.0.2,2013-04-21 14:30:00,
2013-04-21 10:40:00,44.2,22.0,30.57,NE,53,4.0,5.0,41,0.00,,,0.00,Wunderground v.1.15,2013-04-21 14:40:00,
2013-04-21 10:50:00,43.5,21.3,30.57,ENE,75,5.0,5.0,41,0.00,,,0.00,Wunderground v.1.15,2013-04-21 14:50:00,
2013-04-21 11:00:00,44.3,22.1,30.57,NW,307,4.0,4.0,41,0.00,,,0.00,Wunderground v.1.15,2013-04-21 15:00:00,
2013-04-21 11:10:00,44.6,21.1,30.57,NNE,13,5.0,5.0,39,0.00,,,0.00,Wunderground v.1.15,2013-04-21 15:10:00,
2013-04-21 11:20:00,45.6,23.2,30.57,NNE,15,5.0,5.0,41,0.00,,,0.00,Wunderground v.1.15,2013-04-21 15:20:00,
2013-04-21 11:30:00,45.1,21.6,30.57,NNW,343,5.0,5.0,39,0.00,,,0.00,Wunderground v.1.15,2013-04-21 15:30:00,
2013-04-21 11:40:00,45.6,22.0,30.58,WNW,302,5.0,5.0,39,0.00,,,0.00,Wunderground v.1.15,2013-04-21 15:40:00,
2013-04-21 11:50:00,45.5,21.9,30.57,NW,322,3.0,4.0,39,0.00,,,0.00,Wunderground v.1.15,2013-04-21 15:50:00,
2013-04-21 12:00:00,47.2,22.9,30.57,NNE,33,4.0,4.0,38,0.00,,,0.00,Wunderground v.1.15,2013-04-21 16:00:00,
2013-04-21 12:10:00,47.0,21.4,30.57,North,356,5.0,5.0,36,0.00,,,0.00,Wunderground v.1.15,2013-04-21 16:10:00,
2013-04-21 12:20:00,47.0,23.3,30.57,NNW,332,4.0,4.0,39,0.00,,,0.00,Wunderground v.1.15,2013-04-21 16:20:00,
2013-04-21 12:30:00,47.6,21.3,30.57,NNE,22,5.0,18.0,35,0.00,,,-99.99,WeatherLink 6.0.2,2013-04-21 16:30:00,
2013-04-21 12:40:00,48.2,22.5,30.57,North,1,5.0,12.0,36,0.00,,,0.00,Wunderground v.1.15,2013-04-21 16:40:00,
2013-04-21 12:50:00,47.9,21.5,30.57,East,80,5.0,5.0,35,0.00,,,0.00,Wunderground v.1.15,2013-04-21 16:50:00,
2013-04-21 13:00:00,48.6,22.1,30.56,NE,45,5.0,18.0,35,0.00,,,-99.99,WeatherLink 6.0.2,2013-04-21 17:00:00,
2013-04-21 13:10:00,48.4,21.3,30.56,North,1,6.0,6.0,34,0.00,,,0.00,Wunderground v.1.15,2013-04-21 17:10:00,
2013-04-21 13:20:00,49.9,21.9,30.56,NE,42,5.0,8.0,33,0.00,,,0.00,Wunderground v.1.15,2013-04-21 17:20:00,
2013-04-21 13:30:00,49.7,20.2,30.56,North,1,7.0,7.0,31,0.00,,,0.00,Wunderground v.1.15,2013-04-21 17:30:00,
2013-04-21 13:40:00,49.0,19.6,30.56,NE,37,8.0,8.0,31,0.00,,,0.00,Wunderground v.1.15,2013-04-21 17:40:00,
2013-04-21 13:50:00,49.5,20.8,30.56,NE,40,9.0,9.0,32,0.00,,,0.00,Wunderground v.1.15,2013-04-21 17:50:00,
2013-04-21 14:00:00,49.6,20.2,30.56,NNE,22,7.0,17.0,31,0.00,,,-99.99,WeatherLink 6.0.2,2013-04-21 18:00:00,
2013-04-21 14:10:00,50.7,21.1,30.56,WSW,254,6.0,7.0,31,0.00,,,0.00,Wunderground v.1.15,2013-04-21 18:10:00,
2013-04-21 14:20:00,50.4,19.3,30.56,NNE,32,4.0,10.0,29,0.00,,,0.00,Wunderground v.1.15,2013-04-21 18:20:00,
2013-04-21 14:30:00,50.5,20.2,30.56,NNE,33,8.0,14.0,30,0.00,,,0.00,Wunderground v.1.15,2013-04-21 18:30:00,
2013-04-21 14:40:00,50.2,18.3,30.56,North,5,8.0,8.0,28,0.00,,,0.00,Wunderground v.1.15,2013-04-21 18:40:00,
2013-04-21 14:50:00,50.7,17.9,30.55,NNE,13,8.0,8.0,27,0.00,,,0.00,Wunderground v.1.15,2013-04-21 18:50:00,
2013-04-21 15:00:00,50.5,18.6,30.55,NNE,31,6.0,6.0,28,0.00,,,0.00,Wunderground v.1.15,2013-04-21 19:00:00,
2013-04-21 15:10:00,50.9,18.1,30.55,NNE,28,6.0,6.0,27,0.00,,,0.00,Wunderground v.1.15,2013-04-21 19:10:00,
2013-04-21 15:20:00,51.4,18.5,30.54,ENE,75,6.0,6.0,27,0.00,,,0.00,Wunderground v.1.15,2013-04-21 19:20:00,
2013-04-21 15:30:00,52.0,19.9,30.54,NE,47,3.0,5.0,28,0.00,,,0.00,Wunderground v.1.15,2013-04-21 19:30:00,
2013-04-21 15:40:00,52.3,20.1,30.54,NW,325,4.0,4.0,28,0.00,,,0.00,Wunderground v.1.15,2013-04-21 19:40:00,
2013-04-21 15:50:00,51.3,18.4,30.54,NE,35,7.0,7.0,27,0.00,,,0.00,Wunderground v.1.15,2013-04-21 19:50:00,
2013-04-21 16:00:00,51.3,19.3,30.53,West,270,6.0,6.0,28,0.00,,,0.00,Wunderground v.1.15,2013-04-21 20:00:00,
2013-04-21 16:10:00,52.1,19.9,30.54,NNE,23,7.0,7.0,28,0.00,,,0.00,Wunderground v.1.15,2013-04-21 20:10:00,
2013-04-21 16:20:00,52.2,20.0,30.53,NE,40,4.0,7.0,28,0.00,,,0.00,Wunderground v.1.15,2013-04-21 20:20:00,
2013-04-21 16:30:00,52.2,19.2,30.53,North,9,8.0,8.0,27,0.00,,,0.00,Wunderground v.1.15,2013-04-21 20:30:00,
2013-04-21 16:40:00,52.6,19.5,30.53,NNW,346,5.0,5.0,27,0.00,,,0.00,Wunderground v.1.15,2013-04-21 20:40:00,
2013-04-21 16:50:00,52.6,20.4,30.54,North,5,4.0,4.0,28,0.00,,,0.00,Wunderground v.1.15,2013-04-21 20:50:00,
2013-04-21 17:00:00,52.8,18.8,30.54,North,356,6.0,6.0,26,0.00,,,0.00,Wunderground v.1.15,2013-04-21 21:00:00,
2013-04-21 17:10:00,52.4,19.3,30.54,NNE,17,4.0,9.0,27,0.00,,,0.00,Wunderground v.1.15,2013-04-21 21:10:00,
2013-04-21 17:20:00,52.4,18.5,30.54,NNE,21,5.0,5.0,26,0.00,,,0.00,Wunderground v.1.15,2013-04-21 21:20:00,
2013-04-21 17:30:00,52.8,18.8,30.54,North,0,4.0,13.0,26,0.00,,,-99.99,WeatherLink 6.0.2,2013-04-21 21:30:00,
2013-04-21 17:40:00,53.0,19.0,30.54,NNE,25,4.0,6.0,26,0.00,,,0.00,Wunderground v.1.15,2013-04-21 21:40:00,
2013-04-21 17:50:00,52.9,18.9,30.55,NE,39,5.0,10.0,26,0.00,,,0.00,Wunderground v.1.15,2013-04-21 21:50:00,
2013-04-21 18:00:00,52.3,19.3,30.54,NNW,346,4.0,4.0,27,0.00,,,0.00,Wunderground v.1.15,2013-04-21 22:00:00,
2013-04-21 18:10:00,52.5,19.4,30.55,NW,305,3.0,5.0,27,0.00,,,0.00,Wunderground v.1.15,2013-04-21 22:10:00,
2013-04-21 18:20:00,52.2,18.3,30.55,North,7,3.0,3.0,26,0.00,,,0.00,Wunderground v.1.15,2013-04-21 22:20:00,
2013-04-21 18:30:00,52.3,19.3,30.55,WNW,289,2.0,4.0,27,0.00,,,0.00,Wunderground v.1.15,2013-04-21 22:30:00,
2013-04-21 18:40:00,52.4,19.3,30.55,NNW,345,2.0,4.0,27,0.00,,,0.00,Wunderground v.1.15,2013-04-21 22:40:00,
2013-04-21 18:50:00,51.4,19.3,30.56,North,1,3.0,3.0,28,0.00,,,0.00,Wunderground v.1.15,2013-04-21 22:50:00,
2013-04-21 19:00:00,51.1,19.1,30.56,NNW,340,1.0,1.0,28,0.00,,,0.00,Wunderground v.1.15,2013-04-21 23:00:00,
2013-04-21 19:10:00,50.9,18.9,30.56,NW,316,1.0,1.0,28,0.00,,,0.00,Wunderground v.1.15,2013-04-21 23:10:00,
2013-04-21 19:20:00,50.8,19.6,30.56,NW,306,1.0,1.0,29,0.00,,,0.00,Wunderground v.1.15,2013-04-21 23:20:00,
2013-04-21 19:30:00,50.5,20.2,30.56,West,273,1.0,1.0,30,0.00,,,0.00,Wunderground v.1.15,2013-04-21 23:30:00,
2013-04-21 19:40:00,50.3,20.8,30.57,WNW,295,0.0,1.0,31,0.00,,,0.00,Wunderground v.1.15,2013-04-21 23:40:00,
2013-04-21 19:50:00,49.8,21.8,30.57,West,277,1.0,1.0,33,0.00,,,0.00,Wunderground v.1.15,2013-04-21 23:50:00,
2013-04-21 20:00:00,49.2,23.4,30.57,West,277,0.0,0.0,36,0.00,,,0.00,Wunderground v.1.15,2013-04-22 00:00:00,
2013-04-21 20:10:00,48.6,24.7,30.58,West,277,0.0,0.0,39,0.00,,,0.00,Wunderground v.1.15,2013-04-22 00:10:00,
2013-04-21 20:20:00,47.8,24.6,30.58,West,277,0.0,0.0,40,0.00,,,0.00,Wunderground v.1.15,2013-04-22 00:20:00,
2013-04-21 20:30:00,47.2,25.8,30.59,West,277,0.0,0.0,43,0.00,,,0.00,Wunderground v.1.15,2013-04-22 00:30:00,
2013-04-21 20:40:00,46.5,25.2,30.59,West,277,0.0,0.0,43,0.00,,,0.00,Wunderground v.1.15,2013-04-22 00:40:00,
2013-04-21 20:50:00,46.0,25.3,30.59,West,277,0.0,0.0,44,0.00,,,0.00,Wunderground v.1.15,2013-04-22 00:50:00,
2013-04-21 21:00:00,45.2,25.1,30.60,West,277,0.0,0.0,45,0.00,,,0.00,Wunderground v.1.15,2013-04-22 01:00:00,
2013-04-21 21:10:00,45.1,26.1,30.61,West,277,0.0,0.0,47,0.00,,,0.00,Wunderground v.1.15,2013-04-22 01:10:00,
2013-04-21 21:20:00,44.7,26.7,30.61,West,277,0.0,0.0,49,0.00,,,0.00,Wunderground v.1.15,2013-04-22 01:20:00,
2013-04-21 21:30:00,44.4,25.9,30.61,NNW,337,0.0,2.0,48,0.00,,,-99.99,WeatherLink 6.0.2,2013-04-22 01:30:00,
2013-04-21 21:40:00,44.4,27.4,30.62,NNW,341,0.0,0.0,51,0.00,,,0.00,Wunderground v.1.15,2013-04-22 01:40:00,
2013-04-21 21:50:00,44.1,28.5,30.62,West,273,0.0,1.0,54,0.00,,,0.00,Wunderground v.1.15,2013-04-22 01:50:00,
2013-04-21 22:00:00,43.7,28.1,30.62,West,260,0.0,0.0,54,0.00,,,0.00,Wunderground v.1.15,2013-04-22 02:00:00,
2013-04-21 22:10:00,43.7,28.1,30.61,North,1,0.0,0.0,54,0.00,,,0.00,Wunderground v.1.15,2013-04-22 02:10:00,
2013-04-21 22:20:00,43.8,29.1,30.61,NNW,343,1.0,1.0,56,0.00,,,0.00,Wunderground v.1.15,2013-04-22 02:20:00,
2013-04-21 22:30:00,43.6,28.9,30.61,NNW,343,0.0,2.0,56,0.00,,,0.00,Wunderground v.1.15,2013-04-22 02:30:00,
2013-04-21 22:40:00,43.6,29.8,30.61,North,351,0.0,0.0,58,0.00,,,0.00,Wunderground v.1.15,2013-04-22 02:40:00,
2013-04-21 22:50:00,43.3,29.5,30.61,North,351,0.0,2.0,58,0.00,,,0.00,Wunderground v.1.15,2013-04-22 02:50:00,
2013-04-21 23:00:00,43.2,30.2,30.61,North,0,0.0,3.0,60,0.00,,,-99.99,WeatherLink 6.0.2,2013-04-22 03:00:00,
2013-04-21 23:10:00,42.8,29.5,30.61,NNW,346,0.0,0.0,59,0.00,,,0.00,Wunderground v.1.15,2013-04-22 03:10:00,
2013-04-21 23:20:00,42.5,30.0,30.61,NNW,346,0.0,0.0,61,0.00,,,0.00,Wunderground v.1.15,2013-04-22 03:20:00,
2013-04-21 23:30:00,42.2,29.7,30.61,NNW,346,0.0,0.0,61,0.00,,,0.00,Wunderground v.1.15,2013-04-22 03:30:00,
2013-04-21 23:40:00,41.9,28.6,30.61,NNW,346,0.0,0.0,59,0.00,,,0.00,Wunderground v.1.15,2013-04-22 03:40:00,
2013-04-21 23:50:00,41.8,30.5,30.61,NNW,346,0.0,0.0,64,0.00,,,0.00,Wunderground v.1.15,2013-04-22 03:50:00,